This is the latest recevied weather packets stored in our database for station/object WD0REW. If no packets are shown the sender has not sent any weather packets the latest 10 day(s).
| Time | Temp. | Humidity | Pressure | Rain* | Wind** | Luminosity | Snow |
|---|---|---|---|---|---|---|---|
| 1777564479 | 16.67° C | 43% | 1019.7 hPa | 0 mm | - | 544 W/m² | - |
| 1777564175 | 16.11° C | 42% | 1019.5 hPa | 0 mm | - | 619 W/m² | - |
| 1777563871 | 15.56° C | 42% | 1019.6 hPa | 0 mm | - | 643 W/m² | - |
| 1777563567 | 15.56° C | 40% | 1019.9 hPa | 0 mm | - | 642 W/m² | - |
| 1777563267 | 15° C | 46% | 1019.9 hPa | 0 mm | - | 566 W/m² | - |
| 1777562963 | 15° C | 43% | 1020 hPa | 0 mm | - | 590 W/m² | - |
| 1777562660 | 15° C | 45% | 1019.9 hPa | 0 mm | - | 573 W/m² | - |
| 1777562354 | 15.56° C | 48% | 1019.9 hPa | 0 mm | - | 545 W/m² | - |
| 1777562050 | 15.56° C | 44% | 1020.3 hPa | 0 mm | - | 550 W/m² | - |
| 1777561747 | 15° C | 45% | 1020 hPa | 0 mm | - | 577 W/m² | - |
| 1777561443 | 14.44° C | 53% | 1020.3 hPa | 0 mm | - | 533 W/m² | - |
| 1777561138 | 14.44° C | 48% | 1020.1 hPa | 0 mm | - | 433 W/m² | - |
| 1777560833 | 14.44° C | 45% | 1020.1 hPa | 0 mm | - | 371 W/m² | - |
| 1777560531 | 14.44° C | 47% | 1020.4 hPa | 0 mm | - | 350 W/m² | - |
| 1777560229 | 13.89° C | 51% | 1020.1 hPa | 0 mm | - | 437 W/m² | - |
| 1777559925 | 13.89° C | 50% | 1020.3 hPa | 0 mm | - | 329 W/m² | - |
| 1777559620 | 13.33° C | 51% | 1020.3 hPa | 0 mm | - | 301 W/m² | - |
| 1777559319 | 12.78° C | 54% | 1020.6 hPa | 0 mm | - | 252 W/m² | - |
| 1777559014 | 13.33° C | 56% | 1020.1 hPa | 0 mm | - | 233 W/m² | - |
| 1777558710 | 13.33° C | 55% | 1020 hPa | 0 mm | - | 213 W/m² | - |
| 1777558406 | 13.33° C | 56% | 1019.9 hPa | 0 mm | - | 236 W/m² | - |
| 1777558102 | 12.78° C | 56% | 1020.3 hPa | 0 mm | - | 233 W/m² | - |
| 1777557799 | 13.33° C | 55% | 1019.9 hPa | 0 mm | - | 253 W/m² | - |
| 1777557495 | 12.78° C | 58% | 1020 hPa | 0 mm | - | 262 W/m² | - |
| 1777557192 | 12.78° C | 57% | 1020.3 hPa | 0 mm | - | 266 W/m² | - |
* Rain latest hour (hover to see other rain measurements)
** Current wind speed in m/s (hover to see current wind gust speed)